{"data":{"norad_id":68450,"epoch":"2026-09-20T03:54:59.138208Z","epoch_age_seconds":98770,"freshness":"FRESH","line1":"1 68450U 26067AL  26263.16318447  .00005240  00000+0  24731-3 0  9997","line2":"2 68450  97.4647 220.5018 0004258  68.5186 291.6502 15.19873251 26367","mean_motion":15.19873251,"eccentricity":0.0004258,"inclination_deg":97.4647,"raan_deg":220.5018,"arg_perigee_deg":68.5186,"mean_anomaly_deg":291.6502,"bstar":0.00024731,"rev_number":2636,"period_min":94.744742632489,"perigee_km":503.2919714965,"apogee_km":509.15469275533,"semimajor_km":6884.3603321259,"source":"CELESTRAK","updated_at":"2026-09-20T09:00:24.208531Z"}}